Regional Weather Roundup
Issued by NWS

Home | Current Version | Previous Version | Graphics & Text | Print | Product List | Glossary On
Versions: 1 2 3 4 5 6 7 8 9 10 11 12 13 14 15 16 17 18 19 20 21 22 23 24 25 26 27 28 29 30 31 32 33 34 35 36 37 38 39 40 41 42 43 44 45 46 47 48 49 50
000
ASUS43 KFSD 280802
RWRSD

WEATHER ROUNDUP FOR SOUTH DAKOTA
NATIONAL WEATHER SERVICE SIOUX FALLS SD
300 AM CDT FRI AUG 28 2015

NOTE: "FAIR" INDICATES FEW OR NO CLOUDS BELOW 12,000 FEET WITH NO
SIGNIFICANT WEATHER AND/OR OBSTRUCTIONS TO VISIBILITY.


SDZ001>005-009-010-012>017-280900-
NORTHWEST AND NORTH CENTRAL SOUTH DAKOTA

CITY           SKY/WX    TMP DP  RH WIND       PRES   REMARKS
BUFFALO          N/A     61  57  87 S9        29.91F
FAITH            N/A     63  60  90 SW3       29.95F
MOBRIDGE       PTCLDY    62  62 100 E5        29.91F
$$

SDZ012>016-024>037-041>051-057-063-072>074-280900-
SOUTHWEST AND SOUTH CENTRAL SOUTH DAKOTA

CITY           SKY/WX    TMP DP  RH WIND       PRES   REMARKS
RAPID CTY ARPT CLEAR     58  56  93 CALM      29.98F
PIERRE         CLOUDY    68  67  96 N6        29.91S FOG
CUSTER         CLEAR     59  48  67 CALM      30.13F
ELLSWORTH AFB  CLEAR     63  59  86 SW2       29.97F
PHILIP         CLEAR     59  58  96 NW3       29.93F FOG
PINE RIDGE     CLEAR     53  50  89 CALM      30.01F
WINNER         CLOUDY    69  66  90 E14       29.88F
$$

SDZ004>011-016>023-039-040-280900-
NORTHEAST SOUTH DAKOTA

CITY           SKY/WX    TMP DP  RH WIND       PRES   REMARKS
ABERDEEN       FOG       61  60  97 CALM      29.93S VSB 1/4
WATERTOWN      CLOUDY    66  63  90 S10       29.94S
BROOKINGS      CLOUDY    64  61  88 SE8       29.95F
$$

SDZ017-020-022-023-036>040-048>070-280900-
SOUTHEAST SOUTH DAKOTA

CITY           SKY/WX    TMP DP  RH WIND       PRES   REMARKS
SIOUX FALLS    CLOUDY    66  64  93 SE12      29.92F
HURON          CLOUDY    67  64  90 SE6       29.91S
MITCHELL       CLOUDY    67  66  97 E3        29.91S
YANKTON        CLOUDY    64  64 100 E12G17    29.86F
$$

ABBREVIATIONS USED IN REMARKS
   TC - TEMPERATURE IN CELSIUS
  WCI - WIND CHILL INDEX
   HX - HEAT INDEX
  VSB - VISIBILITY




USA.gov is the U.S. government's official web portal to all federal, state and local government web resources and services.